TimeCDT,TemperatureF,Dew PointF,Humidity,Sea Level PressureIn,VisibilityMPH,Wind Direction,Wind SpeedMPH,Gust SpeedMPH,PrecipitationIn,Events,Conditions,WindDirDegrees,DateUTC
12:13 AM,35.6,21.2,56,29.86,10.0,WNW,3.5,-,N/A,,Overcast,300,2012-11-01 05:13:00
12:32 AM,35.6,21.2,56,29.86,10.0,Calm,Calm,-,N/A,,Overcast,0,2012-11-01 05:32:00
12:53 AM,35.6,21.2,56,29.87,10.0,WNW,3.5,-,N/A,,Overcast,300,2012-11-01 05:53:00
1:13 AM,35.6,21.2,56,29.87,10.0,NW,4.6,-,N/A,,Overcast,310,2012-11-01 06:13:00
1:32 AM,33.8,24.8,70,29.87,7.0,WNW,6.9,-,N/A,Snow,Snow,300,2012-11-01 06:32:00
1:53 AM,33.8,28.4,81,29.88,10.0,WNW,6.9,-,N/A,,Overcast,300,2012-11-01 06:53:00
2:12 AM,33.8,28.4,81,29.87,10.0,WNW,6.9,-,N/A,,Overcast,300,2012-11-01 07:12:00
2:33 AM,33.8,30.2,87,29.87,10.0,WNW,5.8,-,N/A,,Overcast,300,2012-11-01 07:33:00
2:53 AM,33.8,30.2,87,29.87,7.0,WNW,5.8,-,N/A,,Overcast,300,2012-11-01 07:53:00
3:13 AM,33.8,30.2,87,29.87,7.0,WNW,5.8,-,N/A,,Overcast,300,2012-11-01 08:13:00
3:32 AM,33.8,30.2,87,29.87,4.0,NW,6.9,-,N/A,Snow,Light Snow,310,2012-11-01 08:32:00
3:53 AM,33.8,30.2,87,29.86,10.0,WNW,5.8,-,N/A,,Overcast,300,2012-11-01 08:53:00
4:13 AM,33.8,30.2,87,29.87,10.0,NW,5.8,-,N/A,,Overcast,310,2012-11-01 09:13:00
4:32 AM,33.8,30.2,87,29.87,10.0,WNW,3.5,-,N/A,,Overcast,300,2012-11-01 09:32:00
4:53 AM,33.8,32.0,93,29.87,5.0,NNW,6.9,-,N/A,Rain,Light Rain,330,2012-11-01 09:53:00
5:13 AM,33.8,32.0,93,29.87,5.0,NW,8.1,-,N/A,Rain,Light Rain,320,2012-11-01 10:13:00
5:32 AM,33.8,32.0,93,29.88,10.0,NW,9.2,17.3,N/A,,Overcast,320,2012-11-01 10:32:00
5:53 AM,33.8,32.0,93,29.87,7.0,NW,6.9,-,N/A,,Overcast,320,2012-11-01 10:53:00
6:13 AM,33.8,32.0,93,29.88,7.0,NW,10.4,16.1,N/A,,Overcast,310,2012-11-01 11:13:00
6:32 AM,33.8,32.0,93,29.87,10.0,NW,5.8,-,N/A,,Overcast,320,2012-11-01 11:32:00
6:53 AM,33.8,32.0,93,29.88,4.0,WNW,4.6,-,N/A,Snow,Light Snow,300,2012-11-01 11:53:00
7:13 AM,33.8,32.0,93,29.88,10.0,NNW,6.9,-,N/A,,Overcast,330,2012-11-01 12:13:00
7:32 AM,33.8,30.2,87,29.89,7.0,NW,6.9,-,N/A,Snow,Light Snow,310,2012-11-01 12:32:00
7:53 AM,33.8,30.2,87,29.89,10.0,NW,6.9,-,N/A,,Overcast,310,2012-11-01 12:53:00
8:13 AM,33.8,30.2,87,29.89,10.0,NW,10.4,-,N/A,,Overcast,320,2012-11-01 13:13:00
8:32 AM,33.8,30.2,87,29.90,10.0,NW,10.4,19.6,N/A,,Overcast,320,2012-11-01 13:32:00
8:53 AM,33.8,30.2,87,29.90,10.0,NW,6.9,17.3,N/A,,Overcast,320,2012-11-01 13:53:00
9:13 AM,33.8,28.4,81,29.90,10.0,NNW,8.1,20.7,N/A,,Overcast,330,2012-11-01 14:13:00
9:32 AM,33.8,30.2,87,29.91,10.0,WNW,10.4,18.4,N/A,,Overcast,300,2012-11-01 14:32:00
9:53 AM,33.8,30.2,87,29.91,10.0,NW,11.5,16.1,N/A,,Overcast,320,2012-11-01 14:53:00
10:13 AM,33.8,30.2,87,29.91,3.0,NW,10.4,18.4,N/A,Snow,Light Snow,310,2012-11-01 15:13:00
10:33 AM,33.8,30.2,87,29.92,5.0,NNW,9.2,-,N/A,Snow,Light Snow,330,2012-11-01 15:33:00
10:53 AM,33.8,30.2,87,29.92,2.0,NW,8.1,21.9,N/A,Snow,Light Snow,320,2012-11-01 15:53:00
11:12 AM,33.8,30.2,87,29.92,7.0,NW,12.7,17.3,N/A,Snow,Light Snow,310,2012-11-01 16:12:00
11:33 AM,33.8,30.2,87,29.92,3.0,NW,10.4,19.6,N/A,Snow,Light Snow,310,2012-11-01 16:33:00
11:39 AM,33.8,30.2,87,29.92,2.5,NW,10.4,17.3,N/A,Snow,Light Snow,320,2012-11-01 16:39:00
12:13 PM,33.8,26.6,75,29.93,10.0,NW,12.7,21.9,N/A,,Overcast,320,2012-11-01 17:13:00
12:33 PM,35.6,28.4,75,29.93,10.0,NNW,10.4,21.9,N/A,,Overcast,340,2012-11-01 17:33:00
12:52 PM,35.6,26.6,70,29.93,10.0,NNW,9.2,20.7,N/A,,Overcast,340,2012-11-01 17:52:00
1:13 PM,33.8,28.4,81,29.93,5.0,NW,12.7,21.9,N/A,,Haze,320,2012-11-01 18:13:00
1:33 PM,33.8,26.6,75,29.93,10.0,NW,15.0,19.6,N/A,,Overcast,320,2012-11-01 18:33:00
1:53 PM,33.8,26.6,75,29.93,10.0,NNW,15.0,21.9,N/A,,Overcast,330,2012-11-01 18:53:00
2:13 PM,35.6,26.6,70,29.93,10.0,NNW,11.5,20.7,N/A,,Overcast,330,2012-11-01 19:13:00
2:33 PM,33.8,26.6,75,29.93,10.0,NW,11.5,17.3,N/A,,Overcast,320,2012-11-01 19:33:00
2:53 PM,33.8,26.6,75,29.93,10.0,NW,10.4,18.4,N/A,,Overcast,310,2012-11-01 19:53:00
3:01 PM,33.8,28.4,81,29.94,5.0,NW,9.2,-,N/A,Snow,Light Snow,320,2012-11-01 20:01:00
3:21 PM,33.8,26.6,75,29.94,10.0,NW,12.7,18.4,N/A,,Overcast,320,2012-11-01 20:21:00
3:41 PM,33.8,26.6,75,29.94,10.0,NW,8.1,16.1,N/A,,Overcast,320,2012-11-01 20:41:00
4:01 PM,33.8,26.6,75,29.95,10.0,NNW,9.2,16.1,N/A,,Overcast,330,2012-11-01 21:01:00
4:21 PM,33.8,26.6,75,29.95,10.0,NW,11.5,-,N/A,,Overcast,310,2012-11-01 21:21:00
4:44 PM,33.8,26.6,75,29.96,10.0,NNW,10.4,16.1,N/A,,Overcast,330,2012-11-01 21:44:00
4:52 PM,33.8,26.6,75,29.96,10.0,NW,8.1,16.1,N/A,,Overcast,320,2012-11-01 21:52:00
5:13 PM,33.8,24.8,70,29.97,10.0,NNW,6.9,-,N/A,,Overcast,340,2012-11-01 22:13:00
5:33 PM,32.0,24.8,75,29.98,10.0,NNW,10.4,16.1,N/A,,Overcast,340,2012-11-01 22:33:00
5:52 PM,32.0,24.8,75,29.99,10.0,NNW,8.1,17.3,N/A,,Overcast,330,2012-11-01 22:52:00
6:13 PM,32.0,24.8,75,29.99,10.0,NW,10.4,16.1,N/A,,Overcast,320,2012-11-01 23:13:00
6:33 PM,32.0,24.8,75,30.00,10.0,NNW,8.1,-,N/A,,Overcast,340,2012-11-01 23:33:00
6:52 PM,30.2,24.8,80,30.00,10.0,NNW,8.1,-,N/A,,Overcast,330,2012-11-01 23:52:00
7:13 PM,30.2,24.8,80,30.01,10.0,NNW,6.9,-,N/A,,Overcast,330,2012-11-02 00:13:00
7:33 PM,30.2,24.8,80,30.01,10.0,NNW,5.8,-,N/A,,Overcast,340,2012-11-02 00:33:00
7:52 PM,30.2,24.8,80,30.02,10.0,NNW,10.4,16.1,N/A,,Overcast,330,2012-11-02 00:52:00
8:13 PM,30.2,24.8,80,30.02,10.0,NNW,6.9,17.3,N/A,,Overcast,330,2012-11-02 01:13:00
8:33 PM,30.2,23.0,75,30.02,10.0,NW,6.9,19.6,N/A,,Overcast,320,2012-11-02 01:33:00
8:52 PM,30.2,21.2,69,30.02,10.0,NNW,11.5,17.3,N/A,,Overcast,330,2012-11-02 01:52:00
9:13 PM,28.4,21.2,74,30.02,10.0,North,6.9,-,N/A,,Mostly Cloudy,350,2012-11-02 02:13:00
9:33 PM,28.4,21.2,74,30.02,10.0,NNW,8.1,-,N/A,,Mostly Cloudy,330,2012-11-02 02:33:00
9:53 PM,28.4,21.2,74,30.02,10.0,North,3.5,-,N/A,,Mostly Cloudy,360,2012-11-02 02:53:00
10:13 PM,28.4,21.2,74,30.03,10.0,North,5.8,-,N/A,,Scattered Clouds,360,2012-11-02 03:13:00
10:32 PM,26.6,21.2,80,30.03,10.0,North,5.8,-,N/A,,Clear,360,2012-11-02 03:32:00
10:53 PM,28.4,21.2,74,30.03,10.0,NNW,6.9,23.0,N/A,,Scattered Clouds,340,2012-11-02 03:53:00
11:13 PM,28.4,21.2,74,30.04,10.0,NNW,8.1,-,N/A,,Mostly Cloudy,340,2012-11-02 04:13:00
11:32 PM,26.6,21.2,80,30.04,10.0,NNW,4.6,-,N/A,,Scattered Clouds,340,2012-11-02 04:32:00
11:53 PM,26.6,21.2,80,30.05,10.0,NNW,6.9,-,N/A,,Clear,330,2012-11-02 04:53:00